Location: Newark
(49.8969°N, 3.3422°E)
Time: 20:50:46
(UTC+00:00)

Explorer 7 - Pass Details

Date: 24 January 2020
Orbit: 485 x 679 km, 50.3° (Epoch: 22 February)

Event Time Altitude Azimuth Distance (km) Brightness Sun altitude
Rises 00:05:36 0° 243° (WSW) 2,548 - -59.5°
Reaches altitude 10° 00:07:47 10° 240° (WSW) 1,665 - -59.4°
Maximum altitude 00:11:28 61° 160° (SSE) 555 - -59.4°
Drops below altitude 10° 00:15:14 10° 79° (E) 1,692 - -59.3°
Sets 00:17:27 0° 76° (ENE) 2,594 - -59.2°
